Regional Weather Roundup
Issued by NWS

Home | Current Version | Previous Version | Text Only | Print | Product List | Glossary Off
Versions: 1 2 3 4 5 6 7 8 9 10 11 12 13 14 15 16 17 18 19 20 21 22 23 24 25 26 27 28

000
ASUS45 KTFX 020010
RWRMT
MONTANA REGIONAL WEATHER ROUNDUP
NATIONAL WEATHER SERVICE GREAT FALLS MT
600 PM MDT SUN MAY 01 2016

NOTE: "FAIR" INDICATES FEW OR NO CLOUDS BELOW 12000 FEET WITH NO
SIGNIFICANT WEATHER AND/OR OBSTRUCTIONS TO VISIBILITY.

MTZ001>007-043-020100-
WEST OF THE DIVIDE

CITY           SKY/WX    TMP DP  RH WIND       PRES   REMARKS
KALISPELL      SUNNY     71  32  23 W5        30.12F
MISSOULA       SUNNY     69  35  28 NW7       30.12F
BUTTE          SUNNY     59  18  20 SE7       30.17F
MULLAN PASS    SUNNY     54  31  41 CALM      30.19F
ANACONDA         N/A     61  28  29 NE3         N/A
DEER LODGE       N/A     63  32  31 N10       30.17S
EUREKA           N/A     72  32  23 CALM      30.12F
HAMILTON         N/A     64  36  34 N8        30.11F
LIBBY            N/A     72  36  26 W3        30.10F
PLAINS           N/A     70  39  32 NE7       30.11F
$$

MTZ008-052>055-020100-
SOUTHWEST MONTANA

CITY           SKY/WX    TMP DP  RH WIND       PRES   REMARKS
BOZEMAN        SUNNY     63  30  28 E8        30.16S
DILLON         SUNNY     60  27  28 VRB3      30.15F
ENNIS          SUNNY     59  32  36 N16       30.21F
TWIN BRIDGES     N/A     63  28  26 NW15      30.12F
$$

MTZ009-010-012-014-046-048-049-054-020100-
EAST SLOPES AND CENTRAL MONTANA

CITY           SKY/WX    TMP DP  RH WIND       PRES   REMARKS
CUT BANK       SUNNY     61  32  33 SE6       30.19F
GREAT FALLS    SUNNY     63  32  31 N8        30.19F
HELENA         SUNNY     67  31  26 N10G18    30.16F
CHOTEAU          N/A     61  30  31 SE5       30.21F
CONRAD           N/A     63  34  33 E2        30.21F
$$

MTZ011-013-016-021-045-047-050-051-020100-
NORTH CENTRAL MONTANA

CITY           SKY/WX    TMP DP  RH WIND       PRES   REMARKS
HAVRE          SUNNY     66  33  29 W7        30.20F
LEWISTOWN      SUNNY     62  30  29 CALM      30.21F
N BAR RANCH      N/A     55  28  35 E9        30.25S
CHINOOK          N/A     66  34  30 E3        30.20S
$$

MTZ017>020-022>027-061-062-020100-
NORTHEAST MONTANA

CITY           SKY/WX    TMP DP  RH WIND       PRES   REMARKS
GLASGOW        SUNNY     65  32  29 VRB5      30.19F
JORDAN           N/A     62  27  26 CALM      30.22S
SIDNEY         SUNNY     64  28  25 NW8       30.18F
WOLF POINT     SUNNY     68  32  26 W12       30.18F
PLENTYWOOD       N/A     68  25  19 W6        30.14F
POPLAR           N/A     66  28  24 W10       30.17F
SCOBEY           N/A     66  30  26 W3        30.14F
$$

MTZ028>42-056>058-020100-
SOUTHCENTRAL AND SOUTHEAST MONTANA

CITY           SKY/WX    TMP DP  RH WIND       PRES   REMARKS
BAKER          SUNNY     61  28  28 N7        30.22F
BILLINGS       MOSUNNY   59  28  30 SE7       30.21F
LIVINGSTON     CLOUDY    58  27  30 E21G26    30.18F
MILES CITY     SUNNY     62  29  28 W6        30.22F
EKALAKA          N/A     58  25  28 NW1       30.19F
FORSYTH          N/A     63  27  25 SE5       30.22F
LAUREL           N/A     59  29  32 CALM      30.19F
ROUNDUP          N/A     61  30  31 CALM      30.11F
$$

REGIONAL REPORTS...DAKOTAS

CITY           SKY/WX    TMP DP  RH WIND       PRES   REMARKS
WILLISTON      SUNNY     68  25  19 CALM      30.17F
MINOT          SUNNY     69  22  16 CALM      30.14F
DICKINSON      MOSUNNY   59  29  31 NW6       30.17F
BISMARCK       SUNNY     64  29  26 VRB7      30.19F
GRAND FORKS    SUNNY     66  27  23 NW6       30.14F
FARGO          SUNNY     67  27  22 N7        30.13F
BUFFALO SD       N/A     61  26  26 N6        30.15F
RAPID CITY     SUNNY     57  29  34 N9        30.21F
$$

REGIONAL REPORTS...WYOMING/IDAHO/WASHINGTON

CITY           SKY/WX    TMP DP  RH WIND       PRES   REMARKS
GILLETTE       SUNNY     55  26  32 NW5       30.22F
SHERIDAN       SUNNY     58  27  30 SE5       30.21F
BUFFALO WY       N/A    N/A N/A N/A MISG      30.23F
CODY           CLOUDY    54  25  32 E3        30.21S
YELLOWSTONE LA   N/A     46  10  23 E5        30.25F
IDAHO FALLS    SUNNY     65  21  18 N12       30.09F
SALMON         SUNNY     66  27  22 CALM      30.07F
BOISE          SUNNY     70  39  32 NW9       30.02F
SPOKANE        MOSUNNY   72  34  24 NE10      30.07F
$$

REGIONAL REPORTS...ALBERTA

CITY           SKY/WX    TMP DP  RH WIND       PRES   REMARKS
EDMONTON       SUNNY     73  39  29 W6        30.07F
CALGARY        PTSUNNY   70  25  18 E3        30.15F
MEDICINE HAT   CLOUDY    68  34  28 SW6       30.15F
WATERTON GATE    N/A     66  30  26 W1          N/A
MILK RIVER       N/A     64  34  32 S7          N/A
ONEFOUR          N/A     64  32  29 W6          N/A
$$

REGIONAL REPORTS...SASKATCHEWAN

CITY           SKY/WX    TMP DP  RH WIND       PRES   REMARKS
SWIFT CURRENT  MOSUNNY   66  34  30 W17G23    30.13F
REGINA         PTSUNNY   68  32  26 W17G26    30.09F
SASKATOON      PTSUNNY   72  30  21 NW14      30.06F
CYPRESS HILLS    N/A     61  30  31 W6          N/A
VAL MARIE        N/A     64  25  22 W12         N/A
ROCKGLEN         N/A     64  30  27 W8          N/A
$$




USA.gov is the U.S. government's official web portal to all federal, state and local government web resources and services.